Regional Weather Roundup
Issued by NWS Upton, NY

Current Version | Previous Version | Graphics & Text | Print | Product List | Glossary Off
Versions: 1 2 3 4 5 6 7 8 9 10 11 12 13 14 15 16 17 18 19 20 21 22 23 24 25 26 27 28 29 30 31 32 33 34 35 36 37 38 39 40 41 42 43 44 45 46 47 48 49 50

635
ASUS41 KOKX 161008
RWROKX

REGIONAL WEATHER ROUNDUP
NATIONAL WEATHER SERVICE NEW YORK NY
500 AM EST MON JAN 16 2017

NOTE: "FAIR" INDICATES FEW OR NO CLOUDS BELOW 12,000 FEET WITH NO
SIGNIFICANT WEATHER AND/OR OBSTRUCTIONS TO VISIBILITY.

NYZ071-072-176-178-NJZ106-104-161100-
NEW YORK CITY METRO AREA

CITY           SKY/WX    TMP DP  RH WIND       PRES   REMARKS
Central Park   CLEAR     30  16  56 N5        30.45F WCI  25
Wall St Helipt SUNNY     33  20  58 E5        30.45F WCI  29
Bronx Bot Gard NOT AVBL
LaGuardia APRT CLEAR     32  18  56 N3        30.44F
Kennedy INTL   CLEAR     30  19  63 N5        30.45F WCI  25
Breezy Point     N/A    N/A N/A N/A NE3         N/A
Newark/Liberty CLEAR     27  19  72 NE5       30.44F WCI  22
Teterboro      CLEAR     26  19  74 CALM      30.44F
$$

NYZ177-179-078>081-161100-
LONG ISLAND NEW YORK

CITY           SKY/WX    TMP DP  RH WIND       PRES   REMARKS
Jones Beach      N/A    N/A N/A N/A N3          N/A
Matinecock PT  NOT AVBL
Farmingdale    PTCLDY    26  18  71 N3        30.44S
MacArthur/ISP  CLEAR     21  18  88 N3        30.43F
Shirley        CLEAR     21  18  88 CALM      30.44F
Westhampton    CLEAR     13  10  88 CALM      30.45S
Southampton    NOT AVBL
Bridgehampton  NOT AVBL
East Hampton     N/A     17  15  90 CALM      30.43S
Montauk          N/A     27  20  75 CALM      30.43F
$$

NYZ052-065-067-161100-
HUDSON VALLEY

CITY           SKY/WX    TMP DP  RH WIND       PRES   REMARKS
White Plains   CLEAR     22  15  75 NW3       30.41F
Newburgh       NOT AVBL
Montgomery     CLEAR     16  12  84 CALM      30.42S
Poughkeepsie   CLEAR     15  12  88 CALM      30.44S
Albany         CLEAR     15  11  83 CALM      30.43F
$$

NJZ001-105-106-008-010-013-015-019>022-104-161100-
NEW JERSEY

CITY           SKY/WX    TMP DP  RH WIND       PRES   REMARKS
Newark/Liberty CLEAR     27  19  72 NE5       30.44F WCI  22
Teterboro      CLEAR     26  19  74 CALM      30.44F
Caldwell       CLEAR     20  17  88 CALM      30.45F
Somerville     CLEAR     16  12  84 CALM      30.43F
Linden           N/A     26  19  74 CALM      30.45F
Sussex         CLOUDY    13  10  88 CALM      30.42S
Andover          N/A     15  11  83 CALM      30.42F
Trenton        CLEAR     22  18  85 CALM      30.44S
Millville      CLOUDY    23  21  92 CALM      30.45R
Atlantic City  CLEAR     23  17  78 CALM      30.44F
Wrightstown    CLEAR     23  18  82 CALM      30.41F
Toms River     CLEAR     15  13  91 CALM      30.45F
Belmar         CLEAR     22  19  89 W5        30.44F WCI  16
$$

PAZ047>061-062-071-161100-
EASTERN PENNSYLVANIA

CITY           SKY/WX    TMP DP  RH WIND       PRES   REMARKS
Philadelphia   CLEAR     27  19  72 N5        30.46F WCI  22
Allentown      CLOUDY    16  12  84 CALM      30.44F
Scranton       CLOUDY    15  11  83 E6        30.40S WCI   6
$$

CTZ002-004>006-009-010-012-RIZ004-006-007-MAZ004-011-015-161100-
SOUTHERN NEW ENGLAND
 IN CT

CITY           SKY/WX    TMP DP  RH WIND       PRES   REMARKS
Bradley INTL   CLEAR     18  13  80 CALM      30.43S
Hartford       CLEAR     19  16  88 CALM      30.45R FOG
Danbury        CLEAR     15  11  83 CALM      30.43S
Wtrbury/Oxford CLEAR     19  12  73 N3        30.40F
Bridgeport     CLEAR     23  17  78 CALM      30.44F
Meriden        CLEAR     18  12  77 CALM      30.44S
New Haven      CLEAR     20  15  81 CALM      30.44S
Chester          N/A     23  14  68 N3        30.41F
Groton         CLEAR     22  16  78 N5        30.43F WCI  16
Wilimantic     CLEAR     16  13  88 CALM      30.44S

 IN RI

CITY           SKY/WX    TMP DP  RH WIND       PRES   REMARKS
Providence     PTCLDY    20  16  84 W5        30.44S WCI  13
Block Island   NOT AVBL
Westerly       CLEAR     19  13  77 CALM      30.44S
 IN MA

CITY           SKY/WX    TMP DP  RH WIND       PRES   REMARKS
Boston         CLEAR     24  12  60 CALM      30.44S
Worcester      CLEAR     21   8  57 SW6       30.36S WCI  13
Westfield      CLEAR     15  13  91 CALM      30.42S
Provincetown   CLEAR     23  16  74 CALM      30.43S
Nantucket      CLEAR     22  15  75 CALM      30.43S
$$

ANZ330-335-338-340-345-350-353-355-161100-
COASTAL MARINE OBSERVATIONS


STATION/POSITION TIME  SKY/WX   TEMP    WIND        PRES    VSBY  WAVE
                                AIR SEA DIR/SP/G                  HT/PER
                 (UTC)          (F)     (DEG/KT/KT) (MB)    (MI)  (FT/S)
NY HARB ENTRANCE 0850            36 43   50/ 10/ 12 1030.9          1/10
20 S FIRE ISLAND 0850            37 45   30/ 10/ 12 1030.4          2/10
GREAT SOUTH BAY  NOT AVBL
23 SSW MONTAUK P 0850            37 47  350/  8/ 10 1030.8          1/11
15 E BARNEGAT LI 0930               44                N/A           2/11
HUDSON CANYON    0850            42 52              1030.2          2/10
KINGS POINT      0942            30 38              1030.7
EXECUTION ROCKS  0945            31     360/  6/  8   N/A
CENTRAL LI SOUND 0930            32      10/  6/ 10   N/A           1/ 2
EASTERN LI SOUND NOT AVBL
ROBBINS REEF     0948            29     340/  6/  7 1031.1
$$


>>>>>>>>>>>>>>>>>>>>>>>>>>>> KEY <<<<<<<<<<<<<<<<<<<<<<<<<<<
>                                                          <
>     SKY/WX - Sky Condition/Present Weather               <
>     TMP    - Temperature in Fahrenheit                   <
>     DP     - Dew Point in Fahrenheit                     <
>     RH     - Relative Humidity in Percent                <
>     WIND   - Direction (from) and Speed in MPH           <
>     PRES   - Mean Sea Level Pressure (inches of Hg)      <
>     WCI    - Wind Chill Index                            <
>     VSB    - VISIBILITY IN MILES                         <
>     HX     - HEAT INDEX                                  <
>     TC     - TEMPERATURE IN CELSIUS                      <
>     VRB    - VARIABLE WIND DIRECTION                     <
>                                                          <
>>>>>>>>>>>>>>>>>>>>>>>>>>>> KEY <<<<<<<<<<<<<<<<<<<<<<<<<<<




USA.gov is the U.S. government's official web portal to all federal, state and local government web resources and services.